Date String (YYYY-MM-DD hh:mm:ss) UTC,Instrument flags,absolute air pressure of the measurement (hPa),sample flow rate (lpm),inlet stack bypass flow (lpm),air temperature of the measurement (°C),ambient temperature measured by the external sensor (°C),aerosol sample conditioner tube jacket temperature (°C),OPC LED temperature (°C),internal box temperature (°C),relative humidity of the measurement (%),span deviation,mass concentration of particles derived from Lorenz-Mie calculation of OPC scattering (μg/m³),mass concentration of particles derived from Lorenz-Mie calculation of OPC scattering (μg/m³),mass concentration of particles derived from Lorenz-Mie calculation of OPC scattering (μg/m³)
DateTimeUTC,F1_M11,P_M11,Q1_M11,Q2_M11,T1_M11,T2_M11,T3_M11,T4_M11,T5_M11,U1_M11,ZSPAN_M11,X2_M11,X0_M11,X1_M11
2024-04-15 06:00:00,SystemResetWarning,0821.1,5.03,000.00,025.3,021.9,000.0,034.2,025.8,008.7,0000.0,0003.39,0008.81,0002.18
2024-04-15 06:01:00,SystemResetWarning,0821.1,4.99,000.00,025.0,022.0,000.0,034.1,025.6,008.9,0000.0,0003.40,0008.95,0002.16
2024-04-15 06:02:00,SystemResetWarning,0821.1,5.00,000.00,025.0,022.4,000.0,034.0,025.9,008.8,0000.0,0003.37,0008.49,0002.17
2024-04-15 06:03:00,SystemResetWarning,0821.1,4.99,000.00,025.0,022.7,000.0,033.8,026.3,009.1,0000.0,0003.35,0008.39,0002.17
2024-04-15 06:04:00,SystemResetWarning,0821.1,5.01,000.00,025.0,023.1,000.0,033.8,026.5,009.3,0000.0,0003.39,0008.25,0002.17
2024-04-15 06:05:00,SystemResetWarning,0821.2,5.01,000.00,025.0,023.4,000.0,033.7,026.6,009.0,0000.0,0003.41,0008.32,0002.17
2024-04-15 06:06:00,SystemResetWarning,0821.2,4.99,000.00,025.0,023.6,000.0,033.7,026.7,009.0,0000.0,0003.42,0008.62,0002.18
2024-04-15 06:07:00,SystemResetWarning,0821.1,5.00,000.00,025.1,023.8,000.0,033.7,026.8,009.1,0000.0,0003.44,0008.99,0002.18
2024-04-15 06:08:00,SystemResetWarning,0821.1,5.00,000.00,025.1,024.0,000.0,033.6,026.9,009.1,0000.0,0003.45,0009.37,0002.21
2024-04-15 06:09:00,SystemResetWarning,0821.1,5.00,000.00,025.1,024.2,000.0,033.6,027.0,009.3,0000.0,0003.44,0009.78,0002.20
2024-04-15 06:10:00,SystemResetWarning,0821.1,4.99,000.00,025.2,024.3,000.0,033.6,027.0,009.4,0000.0,0003.47,0010.39,0002.21
2024-04-15 06:11:00,SystemResetWarning,0821.1,5.00,000.00,025.2,024.4,000.0,033.6,027.1,009.0,0000.0,0003.47,0010.40,0002.21
2024-04-15 06:12:00,SystemResetWarning,0821.1,5.00,000.00,025.3,024.5,000.0,033.6,027.1,009.1,0000.0,0003.47,0010.27,0002.21
2024-04-15 06:13:00,SystemResetWarning,0821.1,5.00,000.00,025.3,024.6,000.0,033.6,027.2,009.0,0000.0,0003.46,0010.12,0002.21
2024-04-15 06:14:00,SystemResetWarning,0821.1,5.01,000.00,025.3,024.6,000.0,033.6,027.2,008.9,0000.0,0003.47,0010.07,0002.18
2024-04-15 06:15:00,SystemResetWarning,0821.1,5.01,000.00,025.4,024.7,000.0,033.7,027.3,008.8,0000.0,0003.45,0010.01,0002.18
2024-04-15 06:16:00,SystemResetWarning,0821.1,4.99,000.00,025.4,024.8,000.0,033.7,027.3,008.7,0000.0,0003.42,0010.28,0002.16
2024-04-15 06:17:00,SystemResetWarning,0821.1,4.99,000.00,025.4,024.8,000.0,033.7,027.3,008.9,0000.0,0003.41,0010.97,0002.15
2024-04-15 06:18:00,SystemResetWarning,0821.1,5.00,000.00,025.5,024.8,000.0,033.7,027.3,008.9,0000.0,0003.37,0011.52,0002.14
2024-04-15 06:19:00,SystemResetWarning,0821.1,5.00,000.00,025.5,024.9,000.0,033.7,027.4,008.7,0000.0,0003.34,0010.73,0002.11
2024-04-15 06:20:00,SystemResetWarning,0821.1,5.00,000.00,025.5,024.9,000.0,033.8,027.4,008.6,0000.0,0003.36,0010.59,0002.12
2024-04-15 06:21:00,SystemResetWarning,0821.1,5.00,000.00,025.6,024.9,000.0,033.8,027.4,008.7,0000.0,0003.34,0010.66,0002.11
2024-04-15 06:22:00,SystemResetWarning,0821.3,5.00,000.00,025.6,025.0,000.0,033.8,027.4,008.8,0000.0,0003.29,0011.28,0002.12
2024-04-15 06:23:00,SystemResetWarning,0821.4,5.00,000.00,025.6,025.0,000.0,033.8,027.5,008.8,0000.0,0003.28,0011.25,0002.12
2024-04-15 06:24:00,SystemResetWarning,0821.3,5.00,000.00,025.6,025.0,000.0,033.9,027.5,008.7,0000.0,0003.29,0011.76,0002.13
2024-04-15 06:25:00,SystemResetWarning,0821.4,5.00,000.00,025.7,025.0,000.0,033.9,027.5,008.8,0000.0,0003.32,0012.90,0002.15
2024-04-15 06:26:00,SystemResetWarning,0821.1,5.01,000.00,025.7,025.1,000.0,033.9,027.5,008.8,0000.0,0003.33,0012.62,0002.15
2024-04-15 06:27:00,SystemResetWarning,0821.0,5.00,000.00,025.7,025.1,000.0,033.9,027.5,008.6,0000.0,0003.32,0012.28,0002.16
2024-04-15 06:28:00,SystemResetWarning,0821.0,5.00,000.00,025.7,025.1,000.0,033.9,027.6,008.6,0000.0,0003.33,0011.54,0002.16
2024-04-15 06:29:00,SystemResetWarning,0821.1,4.99,000.00,025.8,025.1,000.0,034.0,027.6,008.6,0000.0,0003.38,0010.93,0002.19
2024-04-15 06:30:00,SystemResetWarning,0821.1,4.99,000.00,025.8,025.1,000.0,034.0,027.6,008.5,0000.0,0003.40,0011.39,0002.21
2024-04-15 06:31:00,SystemResetWarning,0821.1,5.00,000.00,025.8,025.1,000.0,034.0,027.7,008.6,0000.0,0003.37,0011.97,0002.21
2024-04-15 06:32:00,SystemResetWarning,0821.0,5.01,000.00,025.8,025.1,000.0,034.0,027.6,008.6,0000.0,0003.39,0011.27,0002.22
2024-04-15 06:33:00,SystemResetWarning,0821.1,5.00,000.00,025.8,025.2,000.0,034.1,027.6,008.5,0000.0,0003.44,0010.67,0002.23
2024-04-15 06:34:00,SystemResetWarning,0821.1,5.00,000.00,025.8,025.2,000.0,034.1,027.7,008.6,0000.0,0003.45,0010.64,0002.24
2024-04-15 06:35:00,SystemResetWarning,0821.1,5.01,000.00,025.9,025.2,000.0,034.1,027.7,008.6,0000.0,0003.46,0010.34,0002.25
2024-04-15 06:36:00,SystemResetWarning,0821.1,4.99,000.00,025.9,025.2,000.0,034.1,027.7,008.6,0000.0,0003.46,0009.69,0002.25
2024-04-15 06:37:00,SystemResetWarning,0821.0,5.00,000.00,025.9,025.2,000.0,034.1,027.7,008.5,0000.0,0003.46,0009.76,0002.26
2024-04-15 06:38:00,SystemResetWarning,0821.0,4.99,000.00,025.9,025.2,000.0,034.1,027.7,008.4,0000.0,0003.51,0009.88,0002.27
2024-04-15 06:39:00,SystemResetWarning,0820.9,5.00,000.00,025.9,025.2,000.0,034.2,027.7,008.5,0000.0,0003.50,0009.80,0002.27
2024-04-15 06:40:00,SystemResetWarning,0821.1,4.99,000.00,025.9,025.2,000.0,034.2,027.7,008.5,0000.0,0003.46,0009.57,0002.26
2024-04-15 06:41:00,SystemResetWarning,0820.9,4.99,000.00,025.9,025.3,000.0,034.2,027.7,008.5,0000.0,0003.48,0009.85,0002.25
2024-04-15 06:42:00,SystemResetWarning,0821.0,5.00,000.00,025.9,025.3,000.0,034.2,027.8,008.4,0000.0,0003.49,0009.01,0002.24
2024-04-15 06:43:00,SystemResetWarning,0820.9,5.00,000.00,026.0,025.3,000.0,034.2,027.8,008.4,0000.0,0003.46,0009.03,0002.22
2024-04-15 06:44:00,SystemResetWarning,0821.1,5.00,000.00,026.0,025.3,000.0,034.2,027.8,008.5,0000.0,0003.45,0009.27,0002.21
2024-04-15 06:45:00,SystemResetWarning,0821.1,5.00,000.00,026.0,025.3,000.0,034.3,027.8,008.5,0000.0,0003.46,0009.20,0002.22
2024-04-15 06:46:00,SystemResetWarning,0821.0,5.00,000.00,026.0,025.3,000.0,034.3,027.8,008.4,0000.0,0003.44,0009.57,0002.21
2024-04-15 06:47:00,SystemResetWarning,0820.9,5.00,000.00,026.0,025.3,000.0,034.3,027.8,008.5,0000.0,0003.42,0010.17,0002.21
2024-04-15 06:48:00,SystemResetWarning,0821.1,5.00,000.00,026.0,025.3,000.0,034.3,027.8,008.6,0000.0,0003.39,0009.79,0002.20
2024-04-15 06:49:00,SystemResetWarning,0821.1,5.00,000.00,026.0,025.3,000.0,034.3,027.8,008.6,0000.0,0003.32,0010.04,0002.18
2024-04-15 06:50:00,SystemResetWarning,0821.2,5.00,000.00,026.0,025.3,000.0,034.3,027.8,008.6,0000.0,0003.31,0010.10,0002.18
2024-04-15 06:51:00,SystemResetWarning,0820.9,5.00,000.00,026.0,025.3,000.0,034.3,027.8,008.7,0000.0,0003.34,0010.51,0002.18
2024-04-15 06:52:00,SystemResetWarning,0820.9,5.00,000.00,026.0,025.3,000.0,034.3,027.9,008.7,0000.0,0003.37,0010.30,0002.19
2024-04-15 06:53:00,SystemResetWarning,0820.8,5.00,000.00,026.1,025.3,000.0,034.4,027.9,008.6,0000.0,0003.34,0010.13,0002.18
2024-04-15 06:54:00,SystemResetWarning,0820.8,5.00,000.00,026.1,025.3,000.0,034.4,027.9,008.6,0000.0,0003.37,0010.00,0002.22
2024-04-15 06:55:00,SystemResetWarning,0820.8,5.00,000.00,026.1,025.4,000.0,034.4,027.9,008.5,0000.0,0003.37,0009.66,0002.24
2024-04-15 06:56:00,SystemResetWarning,0820.8,5.00,000.00,026.1,025.4,000.0,034.4,027.9,008.4,0000.0,0003.37,0009.70,0002.24
2024-04-15 06:57:00,SystemResetWarning,0820.7,5.01,000.00,026.1,025.4,000.0,034.4,027.9,008.5,0000.0,0003.40,0009.48,0002.25
2024-04-15 06:58:00,SystemResetWarning,0820.7,5.00,000.00,026.1,025.4,000.0,034.4,027.9,008.4,0000.0,0003.38,0008.79,0002.25
2024-04-15 06:59:00,SystemResetWarning,0820.7,5.00,000.00,026.1,025.4,000.0,034.4,027.9,008.5,0000.0,0003.37,0008.61,0002.24
